1495695600.66,143,14.06,73574.0,2.71,2.05,1.75,0,*7B
1495695601.86,144,14.06,73572.5,2.71,2.13,1.79,0,*77
1495695603.05,145,14.06,73572.5,2.71,2.01,1.75,0,*79
1495695604.27,146,14.06,73574.8,2.71,2.01,1.67,0,*79
1495695605.46,147,14.06,73574.5,2.71,2.05,1.75,0,*7F
1495695606.68,148,14.06,73572.5,2.71,2.01,1.85,0,*7B
1495695607.93,149,14.06,73578.5,2.73,2.17,1.89,0,*73
1495695609.15,150,14.06,73576.8,2.73,2.13,1.79,0,*70
1495695610.37,151,14.06,73576.5,2.71,2.01,1.67,0,*7F
1495695611.58,152,14.06,73576.8,2.71,2.13,1.89,0,*7F
1495695612.82,153,14.06,73574.8,2.73,2.13,1.89,0,*7C
1495695614.04,154,14.06,73578.3,2.73,2.13,1.75,0,*78
1495695615.25,155,14.06,73580.8,2.71,2.25,1.97,0,*72
1495695616.5,156,14.06,73576.8,2.73,2.39,2.01,0,*72
1495695617.71,157,14.06,73574.0,2.71,2.25,1.89,0,*7F
1495695618.91,158,14.06,73568.8,2.75,2.09,1.83,0,*70
1495695620.12,159,14.06,73574.3,2.75,1.89,1.47,0,*72
1495695621.34,160,14.06,73576.0,2.75,2.09,1.89,0,*71
1495695622.56,161,14.06,73574.3,2.75,2.43,2.17,0,*7A
1495695623.78,162,14.06,73574.8,2.75,2.09,1.93,0,*78
1495695624.99,163,14.06,73576.5,2.75,1.89,1.59,0,*74
1495695626.19,164,14.06,73574.0,2.75,2.05,1.79,0,*76
1495695627.39,165,14.06,73578.3,2.75,2.05,1.79,0,*77
1495695628.58,166,14.06,73572.3,2.79,2.09,1.75,0,*78
1495695629.8,167,14.06,73578.8,2.79,1.93,1.51,0,*7F
1495695630.99,168,14.06,73576.8,2.75,1.83,1.47,0,*7A
1495695632.21,169,14.06,73572.3,2.75,2.01,1.67,0,*70
1495695633.44,170,14.06,73570.3,2.75,1.21,0.75,0,*4B
1495695634.67,171,14.06,73568.8,2.73,1.29,1.01,0,*76
1495695635.89,172,14.06,73578.8,2.71,1.21,0.83,0,*44
1495695637.11,173,14.06,73580.0,2.73,1.75,1.51,0,*78
1495695638.33,174,14.06,73576.5,2.73,1.85,1.41,0,*71
1495695639.55,175,14.06,73572.0,2.71,1.67,1.29,0,*70
1495695640.77,176,14.06,73576.0,2.71,1.29,0.91,0,*4B
1495695642.0,177,14.06,73580.5,2.71,1.17,0.91,0,*47
1495695643.22,178,14.06,73578.5,2.71,1.13,0.71,0,*42
1495695644.45,179,14.06,73584.0,2.71,1.29,0.91,0,*44
1495695645.69,180,14.06,73580.8,2.69,1.47,1.17,0,*7C
1495695646.91,181,14.06,73580.0,2.69,2.01,1.83,0,*71
1495695648.16,182,14.06,73582.5,2.69,1.85,1.51,0,*72
1495695649.38,183,14.06,73584.3,2.69,2.01,1.83,0,*73
1495695650.59,184,14.06,73580.8,2.71,2.25,1.89,0,*71
1495695651.8,185,14.06,73580.8,2.71,1.85,1.43,0,*7F
1495695653.02,186,14.06,73584.5,2.71,1.63,1.33,0,*73
1495695654.24,187,14.06,73584.3,2.71,2.01,1.85,0,*78
1495695655.5,188,14.06,73580.3,2.73,2.17,1.85,0,*72
1495695656.71,189,14.06,73580.8,2.73,1.41,0.95,0,*43
1495695657.93,190,14.06,73580.5,2.75,1.93,1.59,0,*73
1495695659.15,191,14.06,73580.0,2.71,1.97,1.67,0,*7F
1495695660.4,192,14.06,73580.3,2.73,2.17,1.97,0,*7A
1495695661.65,193,14.06,73582.0,2.73,2.17,1.97,0,*7B
1495695662.89,194,14.06,73584.3,2.73,2.01,1.63,0,*70
1495695664.14,195,14.06,73586.8,2.73,1.97,1.63,0,*7D
1495695665.36,196,14.06,73584.5,2.73,2.35,2.05,0,*76
1495695666.59,197,14.06,73582.8,2.73,2.27,2.05,0,*74
1495695667.83,198,14.06,73580.3,2.73,1.97,1.55,0,*75
1495695669.05,199,14.06,73578.3,2.79,1.97,1.71,0,*78
1495695670.27,200,14.06,73582.5,2.75,1.85,1.43,0,*75
1495695671.49,201,14.06,73580.0,2.75,1.71,1.33,0,*78
1495695672.71,202,14.06,73578.8,2.75,2.05,1.71,0,*7D
1495695673.9,203,14.06,73582.8,2.75,2.27,1.89,0,*7B
1495695675.09,204,14.06,73584.5,2.75,2.31,1.93,0,*70
1495695676.31,205,14.06,73584.3,2.75,2.21,1.93,0,*70
1495695677.53,206,14.06,73588.0,2.75,2.39,2.05,0,*76
1495695678.72,207,14.06,73584.0,2.79,2.31,2.05,0,*73
1495695679.94,208,14.06,73586.5,2.79,1.85,1.47,0,*75
1495695681.16,209,14.06,73586.0,2.79,2.25,2.05,0,*78
1495695682.38,210,14.06,73582.8,2.79,2.25,1.93,0,*7C
1495695683.59,211,14.06,73584.0,2.79,2.13,1.93,0,*78
1495695684.8,212,14.06,73584.3,2.75,2.21,1.89,0,*7D
1495695686.0,213,14.06,73580.0,2.79,2.09,1.75,0,*79
1495695687.22,214,14.06,73580.5,2.79,1.97,1.71,0,*7E
1495695688.43,215,14.06,73582.0,2.79,2.05,1.63,0,*74
1495695689.68,216,14.06,73584.5,2.81,1.93,1.63,0,*7C
1495695690.93,217,14.06,73586.3,2.81,2.13,1.85,0,*7E
1495695692.12,218,14.06,73580.8,2.79,2.31,1.97,0,*75
1495695693.36,219,14.06,73582.5,2.81,2.21,1.93,0,*76
1495695694.58,220,14.06,73582.0,2.81,2.31,1.97,0,*79
1495695695.83,221,14.06,73582.5,2.81,1.63,1.25,0,*75
1495695697.04,222,14.06,73580.3,2.83,1.97,1.63,0,*7D
1495695698.29,223,14.06,73578.8,2.81,2.09,1.71,0,*79
1495695699.47,224,14.06,73580.3,2.81,1.83,1.41,0,*7C
1495695700.72,225,14.06,73578.0,2.81,2.05,1.63,0,*70
1495695701.97,226,14.06,73576.0,2.81,1.97,1.63,0,*7B
1495695703.22,227,14.06,73580.8,2.81,1.85,1.51,0,*78
1495695704.45,228,14.06,73582.3,2.81,2.21,1.93,0,*74
1495695705.65,229,14.06,73582.8,2.81,1.75,1.41,0,*78
1495695706.86,230,14.06,73576.5,2.81,1.83,1.47,0,*7F
1495695708.08,231,14.06,73580.5,2.83,1.97,1.63,0,*7F
1495695709.33,232,14.06,73582.8,2.81,1.97,1.63,0,*7E
1495695710.57,233,14.06,73578.8,2.81,1.93,1.63,0,*7B
1495695711.79,234,14.06,73580.5,2.81,1.83,1.47,0,*7B
1495695712.98,235,14.06,73578.3,2.81,1.83,1.41,0,*7C
1495695714.22,236,14.06,73580.3,2.81,1.59,1.25,0,*7A
1495695715.41,237,14.06,73580.0,2.79,1.25,0.97,0,*4F
1495695716.6,238,14.06,73576.5,2.79,1.63,1.41,0,*78
1495695717.79,239,14.06,73580.5,2.79,2.09,1.83,0,*78
1495695718.98,240,14.06,73578.5,2.81,1.75,1.41,0,*77
1495695720.21,241,14.06,73574.5,2.79,1.47,1.21,0,*76
1495695721.42,242,14.06,73568.8,2.79,1.51,1.25,0,*76
1495695722.65,243,14.06,73578.5,2.75,1.17,0.75,0,*4D
1495695723.87,244,14.06,73572.8,2.79,1.71,1.37,0,*71
1495695725.06,245,14.06,73572.8,2.75,1.79,1.43,0,*77
1495695726.28,246,14.06,73578.3,2.75,1.59,1.25,0,*76
1495695727.5,247,14.06,73576.3,2.75,1.71,1.37,0,*7E
1495695728.72,248,14.06,73582.5,2.79,1.47,1.13,0,*7E
1495695729.93,249,14.06,73576.5,2.75,1.89,1.47,0,*70
1495695731.15,250,14.06,73578.3,2.75,1.93,1.43,0,*77
1495695732.34,251,14.06,73576.0,2.79,1.79,1.47,0,*7A
1495695733.55,252,14.06,73572.5,2.79,1.89,1.59,0,*79
1495695734.77,253,14.06,73574.3,2.75,1.93,1.67,0,*72
1495695735.99,254,14.06,73572.5,2.79,1.93,1.51,0,*7C
1495695737.2,255,14.06,73576.3,2.75,1.89,1.55,0,*7E
1495695738.42,256,14.06,73578.5,2.75,2.01,1.67,0,*7F
1495695739.63,257,14.06,73580.8,2.79,1.93,1.59,0,*77
1495695740.85,258,14.06,73578.0,2.79,2.05,1.71,0,*7E
1495695742.06,259,14.06,73572.5,2.79,2.05,1.63,0,*7C
1495695743.29,260,14.06,73576.8,2.75,1.67,1.33,0,*78
1495695744.48,261,14.06,73576.3,2.75,1.83,1.47,0,*70
1495695745.69,262,14.06,73582.0,2.79,2.21,1.97,0,*79
1495695746.88,263,14.06,73578.3,2.79,2.31,2.05,0,*71
1495695748.1,264,14.06,73578.0,2.79,2.21,1.93,0,*7B
1495695749.31,265,14.06,73576.8,2.79,1.93,1.51,0,*7E
1495695750.54,266,14.06,73582.3,2.81,2.09,1.75,0,*7C
1495695751.78,267,14.06,73576.5,2.81,2.25,1.93,0,*7B
1495695752.97,268,14.06,73576.5,2.81,1.83,1.41,0,*74
1495695754.21,269,14.06,73576.0,2.81,1.93,1.47,0,*72
1495695755.43,270,14.06,73580.0,2.83,1.97,1.63,0,*7A
1495695756.67,271,14.06,73574.0,2.81,2.25,1.93,0,*7C
1495695757.86,272,14.06,73580.8,2.83,2.35,2.09,0,*7C
1495695759.08,273,14.06,73578.3,2.83,2.17,1.89,0,*76
1495695760.3,274,14.06,73582.0,2.83,2.39,2.09,0,*76
1495695761.55,275,14.06,73578.3,2.81,1.85,1.47,0,*78
1495695762.73,276,14.06,73578.5,2.85,1.75,1.41,0,*76
1495695763.97,277,14.06,73582.5,2.85,2.09,1.67,0,*7B
1495695765.22,278,14.06,73576.8,2.85,2.39,2.09,0,*7C
1495695766.46,279,14.06,73576.8,2.85,2.25,1.97,0,*74
1495695767.65,280,14.06,73576.8,2.87,2.27,2.01,0,*7E
1495695768.9,281,14.06,73578.0,2.85,2.17,1.85,0,*71
1495695770.09,282,14.06,73582.3,2.87,2.27,1.93,0,*74
1495695771.34,283,14.06,73580.0,2.85,2.39,2.09,0,*78
1495695772.54,284,14.06,73582.8,2.87,2.17,1.79,0,*75
1495695773.78,285,14.06,73576.3,2.89,2.13,1.71,0,*76
1495695775.0,286,14.06,73572.3,2.89,2.27,2.01,0,*76
1495695776.25,287,14.06,73576.0,2.89,2.51,2.17,0,*71
1495695777.5,288,14.06,73576.3,2.89,2.43,2.13,0,*79
1495695778.72,289,14.06,73578.3,2.91,2.59,2.25,0,*7F
1495695779.93,290,14.06,73574.8,2.91,2.69,2.47,0,*70
1495695781.15,291,14.06,73572.0,2.91,2.89,2.69,0,*73
1495695782.36,292,14.06,73578.0,2.93,2.91,2.59,0,*78
1495695783.58,293,14.06,73580.3,2.93,2.95,2.59,0,*7D
1495695784.75,294,14.06,73576.5,2.95,2.91,2.61,0,*73
1495695785.93,295,14.06,73578.0,2.95,2.95,2.69,0,*7E
1495695787.13,296,14.06,73576.8,2.97,2.95,2.65,0,*73
1495695788.37,297,14.06,73580.5,2.97,2.77,2.43,0,*7A
1495695789.57,298,14.06,73576.8,3.01,2.95,2.73,0,*74
1495695790.79,299,14.06,73582.8,3.01,3.03,2.89,0,*7E
1495695792.01,300,14.06,73578.0,3.01,3.11,2.89,0,*7C
1495695793.25,301,14.06,73580.8,3.07,2.85,2.59,0,*7A
1495695794.47,302,14.06,73580.5,3.07,3.19,2.91,0,*79
1495695795.68,303,14.06,73580.3,3.07,3.19,2.91,0,*78
1495695796.9,304,14.06,73578.3,3.09,3.37,3.15,0,*70
1495695798.11,305,14.06,73578.0,3.11,3.59,3.33,0,*74
1495695799.33,306,14.06,73576.0,3.15,3.29,3.03,0,*77
1495695800.51,307,14.06,73578.8,3.15,2.99,2.65,0,*7D
1495695801.74,308,14.06,73576.8,3.13,3.11,2.77,0,*76
1495695802.94,309,14.06,73578.5,3.15,3.19,2.99,0,*79
1495695804.16,310,14.06,73578.3,3.17,3.15,2.69,0,*70
1495695805.38,311,14.06,73578.3,3.17,3.19,2.81,0,*7B
1495695806.6,312,14.06,73578.5,3.17,3.23,2.85,0,*75
1495695807.82,313,14.06,73580.0,3.17,3.07,2.69,0,*70
1495695808.99,314,14.06,73580.5,3.21,2.99,2.65,0,*78
1495695810.18,315,14.06,73580.5,3.19,2.95,2.61,0,*7A
1495695811.35,316,14.06,73580.0,3.21,2.99,2.65,0,*7A
1495695812.57,317,14.06,73582.0,3.21,3.07,2.55,0,*7E
1495695813.79,318,14.06,73578.5,3.21,2.47,2.05,0,*71
1495695815.01,319,14.06,73574.3,3.21,2.47,2.01,0,*74
1495695816.24,320,14.06,73578.5,3.19,2.39,1.93,0,*74
1495695817.48,321,14.06,73578.0,3.19,2.05,1.63,0,*75
1495695818.69,322,14.06,73576.5,3.17,2.01,1.59,0,*75
1495695819.85,323,14.06,73580.0,3.17,2.31,1.79,0,*75
1495695821.04,324,14.06,73582.8,3.17,2.25,1.79,0,*77
1495695822.23,325,14.06,73584.5,3.17,2.25,1.75,0,*7A
1495695823.42,326,14.06,73582.8,3.17,1.97,1.41,0,*74
1495695824.61,327,14.06,73580.3,3.17,2.09,1.75,0,*76
1495695825.81,328,14.06,73584.5,3.17,2.31,1.85,0,*7D
1495695827.0,329,14.06,73586.5,3.17,2.25,1.79,0,*7A
1495695828.21,330,14.06,73586.8,3.17,2.59,2.21,0,*77
1495695829.4,331,14.06,73582.5,3.17,2.61,2.25,0,*79
1495695830.59,332,14.06,73584.3,3.17,2.61,2.43,0,*7A
1495695831.76,333,14.06,73584.3,3.17,2.61,2.35,0,*7A
1495695832.94,334,14.06,73584.8,3.17,2.73,2.35,0,*7E
1495695834.16,335,14.06,73588.5,3.17,2.47,2.09,0,*77
1495695835.39,336,14.06,73590.3,3.19,2.73,2.47,0,*77
1495695836.58,337,14.06,73590.3,3.17,2.81,2.35,0,*70
1495695837.82,338,14.06,73588.8,3.19,2.17,1.67,0,*7A
1495695839.01,339,14.06,73584.0,3.19,2.27,1.79,0,*77
1495695840.22,340,14.06,73584.0,3.17,2.25,1.89,0,*7A
1495695841.43,341,14.06,73580.0,3.17,2.51,2.21,0,*79
1495695842.65,342,14.06,73586.8,3.17,2.85,2.43,0,*77
1495695843.84,343,14.06,73584.8,3.21,2.95,2.55,0,*75
1495695845.01,344,14.06,73584.3,3.21,2.95,2.61,0,*75
1495695846.2,345,14.06,73580.0,3.25,3.03,2.65,0,*7A
1495695847.4,346,14.06,73588.8,3.21,2.95,2.51,0,*74
1495695848.59,347,14.06,73584.3,3.21,2.95,2.55,0,*71
1495695849.77,348,14.06,73582.5,3.25,2.99,2.55,0,*76
1495695850.98,349,14.06,73580.5,3.25,2.89,2.55,0,*76
1495695852.16,350,14.06,73582.0,3.25,2.59,2.31,0,*71
1495695853.38,351,14.06,73580.3,3.21,2.05,1.55,0,*7C
1495695854.59,352,14.06,73576.3,3.21,2.05,1.71,0,*79
1495695855.77,353,14.06,73580.3,3.21,2.35,1.89,0,*7C
1495695856.98,354,14.06,73576.5,3.21,2.39,1.93,0,*7C
1495695858.18,355,14.06,73576.5,3.25,2.17,1.75,0,*7D
1495695859.39,356,14.06,73578.5,3.21,2.05,1.67,0,*7A
1495695860.6,357,14.06,73578.8,3.21,2.01,1.63,0,*7B
1495695861.79,358,14.06,73576.8,3.21,2.25,1.79,0,*79
1495695863.0,359,14.06,73578.3,3.21,2.05,1.71,0,*72
1495695864.22,360,14.06,73578.3,3.19,2.25,1.83,0,*7C
1495695865.43,361,14.06,73580.0,3.21,2.01,1.55,0,*7B
1495695866.67,362,14.06,73576.5,3.19,2.01,1.51,0,*77
1495695867.91,363,14.06,73578.3,3.19,1.71,1.33,0,*76
1495695869.14,364,14.06,73576.8,3.19,1.89,1.51,0,*72
1495695870.34,365,14.06,73574.0,3.17,1.79,1.37,0,*72
1495695871.55,366,14.06,73578.3,3.17,1.85,1.47,0,*75
1495695872.73,367,14.06,73572.3,3.17,1.41,0.95,0,*42
1495695873.94,368,14.06,73582.0,3.15,0.97,0.71,0,*7F
1495695875.12,369,14.06,73578.8,3.13,1.43,0.97,0,*48
1495695876.34,370,14.06,73576.3,3.13,1.33,0.91,0,*41
1495695877.56,371,14.06,73578.0,3.11,1.55,1.05,0,*7E
1495695878.78,372,14.06,73578.5,3.13,1.55,1.09,0,*73
1495695879.99,373,14.06,73574.3,3.13,1.59,1.13,0,*75
1495695881.24,374,14.06,73572.3,3.11,1.55,1.09,0,*77
1495695882.45,375,14.06,73576.3,3.09,1.55,1.09,0,*7F
1495695883.67,376,14.06,73574.3,3.09,1.55,1.09,0,*7C
1495695884.89,377,14.06,73572.5,3.09,1.17,0.71,0,*45
1495695886.1,378,14.06,73578.5,3.07,1.05,0.67,0,*40
1495695887.34,379,14.06,73572.0,3.07,1.25,0.75,0,*40
1495695888.53,380,14.06,73578.0,3.05,1.41,0.95,0,*48
1495695889.75,381,14.06,73574.8,3.05,1.29,0.91,0,*43
1495695890.95,382,14.06,73574.3,3.05,1.41,0.91,0,*4E
1495695892.17,383,14.06,73572.8,3.01,1.33,0.83,0,*4D
1495695893.42,384,14.13,73578.3,2.97,1.29,0.87,0,*4B
1495695894.63,385,14.06,73576.3,3.01,1.43,1.09,0,*7F
1495695895.85,386,14.06,73578.0,2.95,1.29,0.79,0,*4A
1495695897.1,387,14.06,73578.5,2.97,1.17,0.75,0,*48
1495695898.28,388,14.06,73574.8,2.95,1.43,1.01,0,*76
1495695899.5,389,14.06,73574.5,2.95,1.37,0.79,0,*4A
1495695900.71,390,14.06,73576.0,2.95,1.25,0.79,0,*41
1495695901.95,391,14.06,73576.0,2.93,1.13,0.67,0,*4C
1495695903.16,392,14.06,73578.3,2.93,1.01,0.63,0,*48
1495695904.39,393,14.06,73576.5,2.93,1.25,0.71,0,*4C
1495695905.62,394,14.06,73576.3,2.91,1.21,0.75,0,*49
1495695906.84,395,14.06,73582.0,2.91,1.13,0.63,0,*4E
1495695908.09,396,14.06,73582.3,2.89,1.21,0.75,0,*42
1495695909.34,397,14.06,73582.3,2.89,1.29,0.75,0,*4B
1495695910.54,398,14.06,73574.3,2.91,1.41,0.91,0,*49
1495695911.78,399,14.06,73576.0,2.89,1.09,0.59,0,*49
1495695913.0,400,14.06,73574.3,2.85,1.01,0.59,0,*4A
1495695914.2,401,14.06,73574.0,2.87,1.05,0.59,0,*4D
1495695915.41,402,14.06,73572.5,2.85,0.83,0.43,0,*78
1495695916.63,403,14.06,73578.8,2.87,1.17,0.75,0,*42
1495695917.88,404,14.06,73576.0,2.85,1.13,0.83,0,*4A
1495695919.1,405,14.06,73576.5,2.85,1.01,0.51,0,*47
1495695920.32,406,14.06,73582.5,2.85,0.91,0.43,0,*7F
1495695921.5,407,14.06,73580.8,2.83,0.83,0.43,0,*7B
1495695922.69,408,14.06,73578.5,2.83,1.05,0.67,0,*4D
1495695923.91,409,14.06,73582.8,2.83,1.25,0.71,0,*49
1495695925.09,410,14.06,73576.0,2.83,0.79,0.43,0,*78
1495695926.31,411,14.06,73564.5,2.81,1.01,0.51,0,*46
1495695927.52,412,14.06,73568.0,2.79,0.63,0.17,0,*75
1495695928.75,413,14.06,73578.5,2.81,0.67,0.29,0,*7A
1495695929.96,414,14.06,73576.3,2.75,0.63,0.21,0,*7A
1495695931.17,415,14.06,73580.3,2.75,0.83,0.47,0,*75
1495695932.39,416,14.06,73576.5,2.75,1.09,0.63,0,*43
1495695933.59,417,14.06,73582.0,2.75,1.05,0.59,0,*47
1495695934.81,418,14.06,73578.0,2.75,0.71,0.21,0,*75
1495695935.99,419,14.06,73574.5,2.71,0.29,-0.15,0,*57
1495695937.19,420,14.06,73578.0,2.71,0.67,0.29,0,*75
1495695938.4,421,14.06,73576.8,2.71,0.79,0.33,0,*70
1495695939.63,422,14.06,73576.8,2.69,0.75,0.25,0,*71
1495695940.85,423,14.06,73576.5,2.69,0.97,0.51,0,*7F
1495695942.09,424,14.06,73582.8,2.67,0.91,0.51,0,*70
1495695943.31,425,14.06,73582.5,2.67,0.67,0.37,0,*78
1495695944.53,426,14.06,73584.8,2.67,0.75,0.41,0,*79
1495695945.77,427,14.06,73586.5,2.67,1.09,0.63,0,*42
1495695947.01,428,14.06,73580.8,2.67,0.79,0.41,0,*7B
1495695948.22,429,14.06,73580.5,2.67,1.01,0.55,0,*41
1495695949.45,430,14.06,73580.0,2.67,0.51,0.13,0,*7F
1495695950.67,431,14.06,73580.0,2.67,0.63,0.25,0,*7A
1495695951.89,432,14.06,73578.8,2.67,1.01,0.51,0,*4F
1495695953.1,433,14.06,73576.0,2.63,1.05,0.59,0,*46
1495695954.31,434,14.06,73580.0,2.65,0.87,0.41,0,*75
1495695955.52,435,14.13,73584.5,2.63,1.01,0.59,0,*44
1495695956.73,436,14.06,73578.0,2.63,1.05,0.59,0,*43
1495695957.96,437,14.06,73580.5,2.63,0.95,0.47,0,*75
1495695959.17,438,14.13,73582.5,2.63,0.79,0.43,0,*7C
1495695960.39,439,14.06,73582.8,2.63,0.71,0.33,0,*72
1495695961.58,440,14.06,73580.5,2.63,1.01,0.43,0,*4D
1495695962.79,441,14.06,73580.5,2.61,0.95,0.55,0,*75
1495695964.01,442,14.06,73580.5,2.61,1.21,0.83,0,*43
1495695965.23,443,14.06,73582.0,2.61,1.33,0.91,0,*42
1495695966.42,444,14.06,73576.3,2.61,1.01,0.55,0,*4C
1495695967.67,445,14.06,73580.0,2.63,1.21,0.91,0,*45
1495695968.89,446,14.06,73576.0,2.61,1.21,0.91,0,*44
1495695970.08,447,14.06,73576.3,2.61,1.05,0.59,0,*47
1495695971.27,448,14.06,73578.0,2.61,1.05,0.59,0,*48
1495695972.46,449,14.06,73582.5,2.61,1.01,0.47,0,*42
1495695973.67,450,14.13,73582.5,2.59,0.97,0.33,0,*7C
1495695974.91,451,14.06,73582.0,2.59,0.91,0.51,0,*7F
1495695976.12,452,14.06,73580.3,2.61,1.17,0.79,0,*42
1495695977.36,453,14.06,73582.0,2.59,1.51,1.17,0,*73
1495695978.61,454,14.13,73580.5,2.59,1.29,0.91,0,*44
1495695979.77,455,14.06,73578.0,2.61,1.41,1.01,0,*78
1495695980.96,456,14.06,73572.8,2.61,1.43,1.01,0,*79
1495695982.17,457,14.06,73578.5,2.61,1.43,1.17,0,*7F
1495695983.38,458,14.06,73582.3,2.61,1.43,1.17,0,*70
1495695984.59,459,14.06,73586.5,2.61,1.51,1.17,0,*72
1495695985.79,460,14.13,73580.3,2.61,0.71,0.17,0,*7A
1495695986.99,461,14.06,73574.8,2.61,0.59,0.29,0,*7C
1495695988.21,462,14.06,73576.3,2.61,1.09,0.71,0,*46
1495695989.43,463,14.06,73578.0,2.61,1.21,0.83,0,*40
1495695990.61,464,14.06,73576.0,2.61,1.01,0.71,0,*48
1495695991.81,465,14.06,73580.0,2.61,1.29,1.01,0,*75
1495695993.04,466,14.13,73584.8,2.59,1.25,0.79,0,*4F
1495695994.27,467,14.13,73586.8,2.61,1.21,0.83,0,*44
1495695995.48,468,14.06,73580.8,2.61,1.17,0.79,0,*4B
1495695996.66,469,14.06,73572.0,2.61,0.33,-0.19,0,*56
1495695997.86,470,14.13,73578.0,2.61,0.67,0.29,0,*71
1495695999.07,471,14.06,73576.3,2.61,1.17,0.71,0,*4B
1495696000.27,472,14.06,73578.8,2.61,1.33,1.01,0,*78
1495696001.51,473,14.13,73582.8,2.59,1.51,1.17,0,*71
1495696002.73,474,14.06,73584.8,2.59,1.37,1.01,0,*71
1495696003.95,475,14.06,73582.8,2.61,1.63,1.21,0,*78
1495696005.16,476,14.13,73578.8,2.61,1.55,1.09,0,*74
1495696006.39,477,14.06,73576.0,2.61,1.55,1.21,0,*7F
1495696007.61,478,14.06,73580.0,2.61,1.55,1.21,0,*70
1495696008.84,479,14.06,73582.5,2.63,1.51,1.09,0,*7D
1495696010.07,480,14.13,73586.3,2.65,1.21,0.75,0,*40
1495696011.3,481,14.13,73584.0,2.63,1.51,1.17,0,*75
1495696012.54,482,14.06,73582.0,2.63,1.33,0.95,0,*49
1495696013.76,483,14.06,73580.3,2.65,1.55,1.13,0,*71
1495696014.99,484,14.06,73576.8,2.63,1.51,1.17,0,*70
1495696016.23,485,14.13,73582.3,2.63,1.21,0.79,0,*4F
1495696017.45,486,14.06,73582.3,2.65,1.59,1.21,0,*79
1495696018.64,487,14.06,73580.8,2.65,1.37,0.97,0,*4C
1495696019.86,488,14.13,73586.8,2.67,1.75,1.37,0,*7C
1495696021.05,489,14.06,73580.8,2.65,1.43,1.05,0,*7B
1495696022.27,490,14.06,73580.3,2.65,1.43,1.21,0,*75
1495696023.5,491,14.13,73582.5,2.65,1.37,1.09,0,*7D
1495696024.72,492,14.06,73584.5,2.65,1.55,1.13,0,*71
1495696025.95,493,14.06,73586.3,2.67,1.47,1.13,0,*71
1495696027.19,494,14.13,73584.5,2.67,1.93,1.47,0,*7E
1495696028.44,495,14.06,73580.5,2.69,1.97,1.63,0,*73
1495696029.68,496,14.06,73584.0,2.69,1.97,1.63,0,*70
1495696030.92,497,14.06,73584.3,2.69,2.01,1.71,0,*7E
1495696032.16,498,14.13,73582.3,2.69,2.01,1.63,0,*72
1495696033.38,499,14.06,73576.8,2.71,2.13,1.85,0,*71
1495696034.57,500,14.13,73580.0,2.71,2.27,1.97,0,*74
1495696035.82,501,14.13,73580.3,2.73,2.01,1.67,0,*7C
1495696037.07,502,14.06,73576.0,2.73,1.97,1.63,0,*77
1495696038.28,503,14.06,73576.8,2.75,2.05,1.67,0,*7C
1495696039.5,504,14.13,73582.5,2.75,2.05,1.67,0,*7B
1495696040.7,505,14.06,73576.8,2.79,2.13,1.83,0,*7B
1495696041.92,506,14.06,73582.0,2.75,2.39,2.05,0,*71
1495696043.15,507,14.13,73584.0,2.79,2.43,2.13,0,*76
1495696044.36,508,14.06,73582.0,2.79,2.55,2.09,0,*75
1495696045.57,509,14.06,73584.3,2.83,2.25,1.89,0,*7D
1495696046.76,510,14.06,73582.3,2.83,2.35,1.97,0,*7B
1495696047.98,511,14.06,73584.8,2.83,2.39,2.09,0,*72
1495696049.2,512,14.06,73582.8,2.83,2.51,2.13,0,*74
1495696050.43,513,14.13,73586.8,2.83,2.47,2.13,0,*72
1495696051.59,514,14.06,73586.5,2.83,2.61,2.27,0,*76
1495696052.81,515,14.13,73584.8,2.87,2.89,2.55,0,*70
1495696054.03,516,14.06,73586.5,2.87,2.55,2.13,0,*70
1495696055.24,517,14.13,73584.0,2.87,2.01,1.59,0,*7D
1495696056.48,518,14.06,73586.3,2.89,2.01,1.47,0,*73
1495696057.72,519,14.06,73586.0,2.89,2.13,1.85,0,*7F
1495696058.94,520,14.13,73588.0,2.89,2.61,2.21,0,*7D
1495696060.16,521,14.13,73588.8,2.91,2.81,2.47,0,*7B
1495696061.35,522,14.13,73590.3,2.91,2.65,2.25,0,*76
1495696062.57,523,14.06,73588.0,2.91,2.69,2.25,0,*7B
1495696063.81,524,14.06,73584.3,2.93,2.81,2.51,0,*7B
1495696065.02,525,14.06,73582.8,2.95,2.73,2.47,0,*76
1495696066.2,526,14.06,73584.0,2.95,2.27,1.89,0,*75
1495696067.42,527,14.13,73586.3,2.95,1.97,1.63,0,*78
1495696068.64,528,14.13,73586.0,2.97,2.13,1.79,0,*71
1495696069.85,529,14.13,73584.0,3.01,2.39,1.93,0,*72
1495696071.07,530,14.13,73586.3,2.97,2.31,2.01,0,*74
1495696072.32,531,14.06,73584.8,2.97,2.39,2.05,0,*79
1495696073.5,532,14.13,73586.5,3.01,2.27,1.93,0,*77
1495696074.71,533,14.13,73584.0,3.01,2.13,1.71,0,*7D
1495696075.92,534,14.13,73590.3,3.01,2.25,1.89,0,*78
1495696077.11,535,14.13,73592.0,3.01,2.31,1.93,0,*77
1495696078.29,536,14.06,73584.5,3.01,2.27,1.89,0,*78
1495696079.46,537,14.13,73586.0,3.01,2.27,1.83,0,*73
1495696080.7,538,14.13,73590.5,3.07,2.01,1.55,0,*75
1495696081.91,539,14.06,73584.3,3.01,1.67,1.29,0,*7A
1495696083.13,540,14.06,73582.5,3.01,1.67,1.21,0,*7C
1495696084.34,541,14.13,73580.5,3.01,1.89,1.55,0,*7E
1495696085.55,542,14.13,73580.0,3.01,1.89,1.55,0,*7D
1495696086.76,543,14.06,73584.5,3.01,1.89,1.55,0,*7C
1495696087.95,544,14.06,73582.5,3.01,1.71,1.41,0,*79
1495696089.1,545,14.13,73584.5,3.01,1.41,0.97,0,*41
1495696090.32,546,14.06,73588.5,2.97,1.43,1.05,0,*74
1495696091.53,547,14.13,73590.0,3.01,1.67,1.33,0,*78
1495696092.78,548,14.06,73590.3,2.97,1.67,1.33,0,*79
1495696093.99,549,14.06,73592.0,2.97,1.47,1.05,0,*7F
1495696095.2,550,14.13,73588.8,3.01,1.43,0.95,0,*45
1495696096.43,551,14.13,73584.5,2.97,0.95,0.67,0,*7D
1495696097.66,552,14.13,73584.0,2.93,1.25,0.79,0,*4F
1495696098.85,553,14.13,73580.5,2.95,0.91,0.43,0,*7F
1495696100.05,554,14.06,73580.8,2.95,0.95,0.55,0,*7B
1495696101.24,555,14.13,73592.5,2.95,1.05,0.67,0,*43
1495696102.45,556,14.13,73592.8,2.93,1.43,1.01,0,*75
1495696103.65,557,14.06,73582.0,2.93,1.41,0.95,0,*4A
1495696104.86,558,14.13,73582.5,2.93,1.01,0.55,0,*4D
1495696106.05,559,14.13,73582.3,2.91,1.41,0.87,0,*45
1495696107.27,560,14.06,73580.3,2.91,1.33,0.79,0,*4B
1495696108.52,561,14.13,73580.3,2.89,1.55,1.09,0,*75
1495696109.74,562,14.06,73588.0,2.89,1.43,1.05,0,*7D
1495696110.96,563,14.13,73588.0,2.89,1.83,1.37,0,*71
1495696112.21,564,14.13,73584.3,2.89,1.55,1.17,0,*7F
1495696113.4,565,14.13,73584.0,2.91,1.83,1.37,0,*7E
1495696114.56,566,14.13,73588.0,2.91,1.83,1.41,0,*7C
1495696115.75,567,14.13,73590.5,2.91,1.47,1.01,0,*71
1495696116.97,568,14.13,73590.0,2.91,1.71,1.37,0,*7E
1495696118.17,569,14.13,73590.3,2.91,2.17,1.75,0,*7A
1495696119.38,570,14.13,73592.8,2.95,2.47,2.21,0,*71
1495696120.59,571,14.13,73592.5,2.95,2.59,2.21,0,*7F
1495696121.81,572,14.13,73592.3,2.95,2.85,2.51,0,*7A
1495696123.0,573,14.13,73588.0,2.97,2.65,2.27,0,*76
1495696124.17,574,14.06,73588.3,3.01,2.61,2.27,0,*7B
1495696125.38,575,14.13,73594.5,3.01,2.77,2.51,0,*7C
1495696126.62,576,14.13,73592.3,3.07,2.85,2.47,0,*73
1495696127.87,577,14.13,73596.8,3.07,2.81,2.39,0,*7F
1495696129.08,578,14.13,73596.5,3.09,2.85,2.51,0,*74
1495696130.3,579,14.13,73592.5,3.09,2.39,2.01,0,*77
1495696131.48,580,14.06,73588.8,3.09,2.25,1.83,0,*75
1495696132.7,581,14.13,73588.5,3.09,2.39,2.05,0,*74
1495696133.92,582,14.13,73594.5,3.09,2.39,2.13,0,*70
1495696135.15,583,14.06,73590.3,3.11,1.93,1.55,0,*7A
1495696136.37,584,14.13,73590.5,3.11,1.79,1.29,0,*72
1495696137.6,585,14.13,73590.0,3.11,2.01,1.51,0,*70
1495696138.82,586,14.13,73594.3,3.11,1.83,1.33,0,*7E
1495696140.02,587,14.06,73588.3,3.09,1.89,1.17,0,*7A
1495696141.24,588,14.13,73592.8,3.11,1.83,1.09,0,*79
1495696142.43,589,14.13,73596.0,3.11,1.79,1.05,0,*71
1495696143.67,590,14.13,73592.3,3.11,1.93,1.33,0,*78
1495696144.84,591,14.13,73594.8,3.09,1.67,0.97,0,*44
1495696146.07,592,14.13,73594.3,3.11,1.43,0.95,0,*4A
1495696147.29,593,14.13,73590.5,3.09,1.21,0.71,0,*4C
1495696148.5,594,14.06,73590.8,3.09,1.67,1.09,0,*77
1495696149.7,595,14.13,73592.8,3.09,1.51,0.95,0,*47